[[{"header":{"parameterUnit":"m.s-1","parameterCategory":1,"la1":30.2991,"la2":30.254,"lo1":-89.0895,"lo2":-89.0444,"dy":0.0017,"dx":0.0017,"nx":28,"ny":28,"refTime":"2024-05-11T03:00:00:Z","depth":0,"parameterNumber":2,"parameterNumberName":"U-component_of_WINDS"},"data":[0,0,0,0,0,0,0,0,0,0,0,0,0,0,0,0,0,0,0,0,0,0,0,0,0,0,0,0,0,0,0,0,0,0,0,0,0,0,0,0,0,0,0,0,0,0,0,0,0,0,0,0,0,0,0,0,0,0,-0.5962,-0.5963,0,-0.603,-0.6031,-0.6032,-0.6017,-0.6016,-0.6015,-0.6013,-0.6084,-0.6087,-0.609,0,0,0,0,0,0,0,0,0,0,0,0,0,-0.5819,-0.5821,-0.5962,-0.5963,-0.5964,-0.603,-0.6031,-0.6032,-0.6017,-0.6016,-0.6014,-0.6013,-0.6083,-0.6087,-0.609,0,0,0,0,0,0,0,0,0,0,0,0,0,-0.5883,-0.5822,-0.5962,-0.5964,-0.5965,-0.603,-0.6031,-0.6032,-0.6018,-0.6016,-0.6014,-0.6012,-0.6082,-0.6086,-0.6091,-0.6158,0,0,-0.6105,-0.6107,0,0,0,0,0,0,0,0,-0.588,-0.5889,-0.5963,-0.5964,-0.5965,-0.6013,-0.6007,-0.6075,-0.6018,-0.5998,-0.6013,-0.6011,-0.6062,-0.6068,-0.6085,-0.6161,-0.6164,-0.6105,-0.6108,-0.611,-0.6112,0,0,0,0,0,0,0,-0.5875,-0.5886,-0.5989,-0.5964,-0.5966,-0.5962,-0.5969,-0.6019,-0.604,-0.5999,-0.5998,-0.6007,-0.6062,-0.6081,-0.6087,-0.6165,-0.6105,-0.6109,-0.6112,-0.6114,-0.6299,-0.6301,0,0,0,0,0,0,-0.587,-0.5882,-0.5987,-0.5991,-0.5917,-0.5966,-0.5974,-0.6,-0.6039,-0.6043,-0.6008,-0.6006,-0.6074,-0.6082,-0.6089,-0.617,-0.611,-0.6115,-0.6117,-0.6297,-0.63,-0.6302,0,0,0,0,0,0,-0.5867,-0.5879,-0.5984,-0.5936,-0.5949,-0.5971,-0.6,-0.6002,-0.6021,-0.6046,-0.605,-0.6023,-0.6073,-0.6083,-0.6141,-0.6172,-0.6117,-0.6121,-0.6294,-0.6298,-0.6301,-0.6332,0,0,0,0,0,0,-0.5863,-0.5878,-0.5904,-0.5937,-0.5952,-0.6035,-0.6002,-0.6005,-0.6029,-0.6026,-0.6061,-0.6065,-0.6072,-0.6134,-0.6145,-0.6178,-0.6124,-0.6292,-0.6296,-0.63,-0.6329,-0.6336,-0.6343,0,0,0,0,0,-0.5858,-0.5911,-0.5905,-0.5918,-0.5985,-0.6037,-0.6045,-0.6052,-0.6031,-0.6057,-0.6073,-0.6064,-0.6167,-0.614,-0.6153,-0.6187,-0.629,-0.6295,-0.6299,-0.6325,-0.6335,-0.6343,0,0,0,0,0,0,-0.5881,-0.5915,-0.591,-0.5975,-0.6003,-0.6034,-0.6067,-0.6061,-0.6096,-0.6092,-0.6099,-0.6107,-0.6166,-0.6182,-0.6152,-0.6254,-0.6225,-0.6233,-0.6241,-0.625,-0.6257,-0.6252,-0.6128,0,0,0,0,0,-0.5894,-0.5933,-0.596,-0.6015,-0.603,-0.6046,-0.6069,-0.6071,-0.6101,-0.6112,-0.6133,-0.6162,-0.6201,-0.6226,-0.6263,-0.6331,-0.6338,-0.636,-0.6367,-0.6373,-0.638,-0.6416,-0.6426,-0.6318,-0.6318,-0.6317,0,0,-0.5921,-0.5944,-0.5968,-0.6021,-0.6043,-0.6083,-0.6056,-0.61,-0.613,-0.6119,-0.6175,-0.6191,-0.6224,-0.6287,-0.6315,-0.6302,-0.6411,-0.6379,-0.6384,-0.6387,-0.6422,-0.6432,-0.6441,-0.6321,-0.632,-0.632,0,0,-0.599,-0.6012,-0.606,-0.6082,-0.6115,-0.6126,-0.6137,-0.6169,-0.6179,-0.6235,-0.6228,-0.6263,-0.633,-0.6354,-0.6374,-0.6452,-0.6444,-0.6463,-0.6501,-0.6536,-0.6544,-0.6552,-0.6579,-0.6589,-0.647,-0.647,-0.647,0,-0.6019,-0.608,-0.6085,-0.613,-0.6153,-0.6144,-0.6192,-0.6214,-0.6258,-0.6274,-0.6258,-0.6341,-0.6363,-0.6431,-0.645,-0.6467,-0.648,-0.646,-0.6543,-0.655,-0.6558,-0.6584,-0.6594,-0.6472,-0.6472,-0.6472,-0.6471,0,-0.6114,-0.6156,-0.619,-0.6233,-0.626,-0.6306,-0.6318,-0.6345,-0.6344,-0.6356,-0.6413,-0.6438,-0.648,-0.6496,-0.6497,-0.6564,-0.6555,-0.6541,-0.6513,-0.657,-0.6595,-0.6605,-0.6475,-0.6474,-0.6474,-0.6473,0,0,-0.6201,-0.6245,-0.6257,-0.6276,-0.6312,-0.6344,-0.639,-0.643,-0.6453,-0.6483,-0.6522,-0.6578,-0.6565,-0.6588,-0.6591,-0.6622,-0.6681,-0.6604,-0.6605,-0.6618,-0.6757,-0.6767,-0.6778,-0.6676,-0.6678,-0.668,-0.6754,0,-0.6274,-0.6354,-0.636,-0.6432,-0.6471,-0.6463,-0.6502,-0.6528,-0.6541,-0.6575,-0.6588,-0.6628,-0.6608,-0.6622,-0.6652,-0.6668,-0.6709,-0.6662,-0.6712,-0.6714,-0.6704,-0.6791,-0.6802,-0.6871,-0.6763,-0.6765,-0.6766,0,-0.6369,-0.6402,-0.6478,-0.6508,-0.6524,-0.656,-0.6597,-0.663,-0.6659,-0.6666,-0.6692,-0.669,-0.6737,-0.6707,-0.6771,-0.6739,-0.6759,-0.677,-0.6772,-0.6777,-0.6743,-0.6798,-0.6893,-0.6903,-0.6781,-0.678,-0.6779,0,-0.6425,-0.6488,-0.6542,-0.6558,-0.6594,-0.6619,-0.6635,-0.6663,-0.6686,-0.6719,-0.6734,-0.6772,-0.6792,-0.6821,-0.6829,-0.6807,-0.6893,-0.6864,-0.69,-0.69,-0.6919,-0.6917,-0.7017,-0.6932,-0.6932,-0.6931,-0.6931,0,-0.6506,-0.6553,-0.6567,-0.66,-0.6652,-0.6658,-0.6709,-0.6724,-0.6748,-0.6784,-0.6779,-0.6812,-0.6822,-0.6857,-0.6863,-0.6915,-0.6925,-0.6931,-0.6932,-0.6931,-0.6931,-0.6945,-0.694,-0.6934,-0.6934,-0.6933,-0.6933,0,-0.6577,-0.6588,-0.6646,-0.6675,-0.6683,-0.6721,-0.6745,-0.6777,-0.6788,-0.6833,-0.6844,-0.6861,-0.6902,-0.6913,-0.6963,-0.6967,-0.7028,-0.7025,-0.7018,-0.7018,-0.7053,-0.7049,-0.7166,-0.7181,-0.7086,-0.7087,-0.7087,0,-0.6628,-0.6663,-0.6696,-0.6719,-0.6736,-0.6774,-0.6798,-0.6805,-0.683,-0.6865,-0.6892,-0.6933,-0.6965,-0.7031,-0.7048,-0.7085,-0.7083,-0.7121,-0.7088,-0.7086,-0.7083,-0.7081,-0.7084,-0.7127,-0.7128,-0.7129,-0.713,0,-0.6716,-0.672,-0.6754,-0.6791,-0.6819,-0.6849,-0.6877,-0.6896,-0.6906,-0.6935,-0.6976,-0.7001,-0.7051,-0.7091,-0.7128,-0.7145,-0.7139,-0.714,-0.715,-0.7149,-0.7144,-0.7147,-0.7034,-0.7137,-0.7136,-0.7136,-0.7135,-0.7135,-0.6779,-0.681,-0.6837,-0.6876,-0.6897,-0.6923,-0.6954,-0.6969,-0.7003,-0.7044,-0.7046,-0.7091,-0.7118,-0.7168,-0.7186,-0.7222,-0.721,-0.7225,-0.7229,-0.7232,-0.7235,-0.7138,-0.7228,-0.7228,-0.7228,-0.7228,-0.7228,0,-0.6867,-0.6884,-0.6919,-0.6958,-0.6988,-0.6979,-0.701,-0.7035,-0.7075,-0.7101,-0.7133,-0.718,-0.7218,-0.7238,-0.7276,-0.73,-0.7298,-0.731,-0.7308,-0.7312,-0.7243,-0.7231,-0.7311,-0.7311,-0.7311,-0.7311,-0.7311,-0.731,-0.6916,-0.6968,-0.6975,-0.7037,-0.7054,-0.7098,-0.7116,-0.7139,-0.716,-0.7213,-0.7245,-0.7257,-0.7281,-0.732,-0.7355,-0.7359,-0.7373,-0.7386,-0.7389,-0.7325,-0.7317,-0.7309,-0.7297,-0.7389,-0.7389,-0.7455,-0.7456,-0.7456]},{"header":{"parameterUnit":"m.s-1","parameterCategory":1,"la1":30.2991,"la2":30.254,"lo1":-89.0895,"lo2":-89.0444,"dy":0.0017,"dx":0.0017,"nx":28,"ny":28,"refTime":"2024-05-11T03:00:00:Z","depth":0,"parameterNumber":3,"parameterNumberName":"V-component_of_WINDS"},"data":[0,0,0,0,0,0,0,0,0,0,0,0,0,0,0,0,0,0,0,0,0,0,0,0,0,0,0,0,0,0,0,0,0,0,0,0,0,0,0,0,0,0,0,0,0,0,0,0,0,0,0,0,0,0,0,0,0,0,-1.9914,-1.9912,0,-1.9652,-1.9649,-1.9646,-1.954,-1.954,-1.9541,-1.9542,-1.9259,-1.9252,-1.9244,0,0,0,0,0,0,0,0,0,0,0,0,0,-2.0312,-2.0305,-1.9915,-1.9911,-1.9908,-1.9652,-1.9649,-1.9645,-1.954,-1.954,-1.9541,-1.9542,-1.9262,-1.9253,-1.9243,0,0,0,0,0,0,0,0,0,0,0,0,0,-2.0103,-2.0303,-1.9915,-1.9825,-1.9814,-1.9653,-1.9648,-1.9644,-1.9539,-1.954,-1.9541,-1.9542,-1.9265,-1.9253,-1.9241,-1.9146,0,0,-1.9204,-1.9199,0,0,0,0,0,0,0,0,-2.0115,-2.0089,-1.9842,-1.9831,-1.9819,-1.963,-1.9685,-1.9477,-1.9539,-1.9643,-1.9542,-1.9543,-1.9381,-1.9359,-1.9307,-1.9133,-1.9121,-1.9203,-1.9196,-1.919,-1.9187,0,0,0,0,0,0,0,-2.013,-2.0099,-1.981,-1.9838,-1.9824,-1.9793,-1.9765,-1.9645,-1.9509,-1.9634,-1.9626,-1.9597,-1.9375,-1.932,-1.93,-1.9117,-1.9203,-1.9193,-1.9185,-1.918,-1.8847,-1.8846,0,0,0,0,0,0,-2.0161,-2.0112,-1.9819,-1.9802,-1.9973,-1.9785,-1.9753,-1.9689,-1.9511,-1.9485,-1.9597,-1.9593,-1.934,-1.9314,-1.929,-1.9164,-1.9191,-1.9179,-1.9172,-1.8849,-1.8847,-1.8845,0,0,0,0,0,0,-2.017,-2.0136,-1.9829,-1.9955,-1.9914,-1.9778,-1.9706,-1.9684,-1.9628,-1.9482,-1.9456,-1.9566,-1.934,-1.9307,-1.9183,-1.9153,-1.9174,-1.9162,-1.8851,-1.8848,-1.8846,-1.8914,0,0,0,0,0,0,-2.0182,-2.014,-2.0105,-1.9955,-1.9907,-1.9731,-1.9705,-1.9678,-1.9609,-1.9602,-1.9446,-1.9421,-1.9338,-1.9202,-1.9171,-1.9136,-1.9153,-1.8853,-1.885,-1.8847,-1.8914,-1.8914,-1.8915,0,0,0,0,0,-2.0196,-2.0133,-2.0104,-2.0069,-1.9862,-1.973,-1.9702,-1.9611,-1.9607,-1.9569,-1.9475,-1.9426,-1.9162,-1.919,-1.9154,-1.9116,-1.8854,-1.885,-1.8847,-1.8913,-1.8914,-1.8915,0,0,0,0,0,0,-2.0278,-2.0111,-2.0078,-1.9965,-1.9863,-1.9712,-1.9661,-1.9615,-1.9508,-1.9506,-1.9393,-1.9359,-1.9244,-1.9167,-1.9201,-1.9012,-1.9004,-1.8993,-1.9067,-1.9066,-1.9067,-1.9086,-1.9143,0,0,0,0,0,-2.0284,-2.0195,-2.0052,-1.9965,-1.9916,-1.9798,-1.9737,-1.9676,-1.9564,-1.9519,-1.9416,-1.9305,-1.9197,-1.9127,-1.902,-1.8903,-1.8865,-1.8859,-1.8859,-1.8861,-1.8851,-1.878,-1.8775,-1.8834,-1.8834,-1.8834,0,0,-2.0293,-2.0191,-2.014,-1.9979,-1.9893,-1.9798,-1.9762,-1.9664,-1.9591,-1.9502,-1.938,-1.93,-1.9169,-1.9048,-1.8989,-1.898,-1.8827,-1.8856,-1.8858,-1.8848,-1.8776,-1.8771,-1.8766,-1.8832,-1.8832,-1.8832,0,0,-2.0261,-2.0177,-2.0094,-2.001,-1.9881,-1.9803,-1.9784,-1.964,-1.9585,-1.9461,-1.9392,-1.9302,-1.9119,-1.9027,-1.8957,-1.8891,-1.884,-1.8859,-1.886,-1.8792,-1.8788,-1.8783,-1.8756,-1.8748,-1.8851,-1.8851,-1.8851,0,-2.0287,-2.0146,-2.0057,-1.9963,-1.9892,-1.9812,-1.9725,-1.9646,-1.9487,-1.9438,-1.9432,-1.92,-1.9106,-1.8961,-1.8945,-1.8892,-1.8862,-1.8875,-1.8797,-1.8791,-1.8785,-1.8758,-1.8748,-1.8854,-1.8854,-1.8853,-1.8853,0,-2.0183,-2.0086,-2.0035,-1.9888,-1.9812,-1.9722,-1.9614,-1.9547,-1.9493,-1.9414,-1.9287,-1.9172,-1.9039,-1.9,-1.8945,-1.8846,-1.8844,-1.882,-1.8807,-1.8784,-1.8756,-1.8745,-1.8858,-1.8857,-1.8856,-1.8855,0,0,-2.0193,-2.0,-1.9982,-1.9913,-1.9766,-1.9687,-1.9592,-1.9466,-1.9409,-1.9302,-1.9216,-1.9063,-1.9039,-1.8959,-1.8893,-1.8834,-1.8785,-1.8815,-1.881,-1.881,-1.8665,-1.8683,-1.8673,-1.8752,-1.875,-1.8748,-1.8675,0,-2.0139,-1.997,-1.9886,-1.9751,-1.9658,-1.9581,-1.9497,-1.9396,-1.932,-1.9226,-1.914,-1.9032,-1.901,-1.8961,-1.89,-1.8805,-1.8754,-1.8809,-1.8666,-1.8662,-1.8699,-1.8658,-1.8677,-1.8613,-1.8664,-1.8662,-1.866,0,-2.0052,-1.9951,-1.9808,-1.9671,-1.9629,-1.9556,-1.9432,-1.9346,-1.9227,-1.9175,-1.9088,-1.9023,-1.8915,-1.8914,-1.8761,-1.88,-1.8737,-1.8681,-1.8676,-1.8656,-1.8658,-1.8634,-1.8591,-1.858,-1.8643,-1.8645,-1.8646,0,-2.007,-1.9897,-1.9789,-1.9733,-1.9571,-1.9521,-1.945,-1.9333,-1.9262,-1.9153,-1.9105,-1.8984,-1.8917,-1.8822,-1.8725,-1.8734,-1.8579,-1.8571,-1.8529,-1.8531,-1.8497,-1.85,-1.844,-1.8463,-1.8463,-1.8463,-1.8463,0,-2.0017,-1.9931,-1.9795,-1.9728,-1.9629,-1.9532,-1.9435,-1.9357,-1.9254,-1.9167,-1.9092,-1.9011,-1.889,-1.8792,-1.8715,-1.8597,-1.8568,-1.8519,-1.8499,-1.8524,-1.853,-1.8478,-1.8479,-1.846,-1.8461,-1.8462,-1.8462,0,-2.0019,-1.9925,-1.9801,-1.9659,-1.9621,-1.9554,-1.9429,-1.9359,-1.928,-1.9171,-1.9139,-1.9013,-1.8894,-1.879,-1.8631,-1.8579,-1.8457,-1.8435,-1.8499,-1.8487,-1.845,-1.8454,-1.8351,-1.8331,-1.8372,-1.8372,-1.8372,0,-1.9989,-1.9922,-1.9774,-1.9713,-1.9645,-1.9547,-1.9475,-1.9376,-1.9304,-1.9164,-1.9109,-1.8986,-1.8882,-1.8694,-1.8585,-1.8463,-1.8434,-1.8407,-1.8415,-1.8441,-1.8429,-1.8433,-1.8424,-1.8406,-1.8406,-1.8406,-1.8406,0,-1.9946,-1.9903,-1.9805,-1.969,-1.9608,-1.9512,-1.9412,-1.9365,-1.9247,-1.9169,-1.9049,-1.8969,-1.8808,-1.8685,-1.8551,-1.8472,-1.8417,-1.8406,-1.8388,-1.8411,-1.845,-1.8425,-1.8496,-1.8407,-1.8407,-1.8407,-1.8407,-1.8407,-1.9928,-1.9864,-1.975,-1.9643,-1.9559,-1.9469,-1.9395,-1.9309,-1.9208,-1.9073,-1.902,-1.8897,-1.8776,-1.8592,-1.8513,-1.8412,-1.8402,-1.8378,-1.8371,-1.8366,-1.8369,-1.847,-1.8387,-1.8387,-1.8387,-1.8387,-1.8387,0,-1.9877,-1.9801,-1.9704,-1.957,-1.9484,-1.9447,-1.9335,-1.9264,-1.9158,-1.9054,-1.8954,-1.8814,-1.8694,-1.8577,-1.845,-1.8391,-1.8362,-1.836,-1.8361,-1.8343,-1.8387,-1.8413,-1.8385,-1.8385,-1.8385,-1.8385,-1.8385,-1.8385,-1.9841,-1.973,-1.9674,-1.952,-1.9442,-1.9324,-1.9263,-1.9177,-1.9093,-1.8942,-1.8844,-1.8771,-1.8659,-1.8523,-1.841,-1.8378,-1.8332,-1.8337,-1.8297,-1.8339,-1.8341,-1.8342,-1.8365,-1.8329,-1.8329,-1.8261,-1.8261,-1.826]}]]